Regional Weather Roundup
Issued by NWS State College, PA

Home | Current Version | Previous Version | Text Only | Print | Product List | Glossary On
Versions: 1 2 3 4 5 6 7 8 9 10 11 12 13 14 15 16 17 18 19 20 21 22 23 24 25 26 27 28 29 30 31 32 33 34 35 36 37 38 39 40 41 42 43 44 45 46 47 48 49 50
000
ASUS41 KCTP 100810
RWRCTP

REGIONAL WEATHER ROUNDUP
NATIONAL WEATHER SERVICE STATE COLLEGE PA
300 AM EST SAT DEC 10 2016

Note: "fair" indicates few or no clouds below 12,000 feet with no
significant weather and/or obstructions to visibility.

* = STATION THAT DOES NOT REPORT PRECIPITATION /E.G. RAIN...SNOW...ETC/
    THUNDER OR FOG.

PAZ002>004-007>009-013>016-020>023-029>032-100900-
WESTERN PENNSYLVANIA

CITY           SKY/WX    TMP DP  RH WIND       PRES   REMARKS
ERIE           CLOUDY    29  18  63 W13G25    30.34S
MEADVILLE      LGT SNOW  22  18  85 W12       30.33S FOG     WCI  10
FRANKLIN*        N/A     21  16  79 W10       30.34S WCI  10
NEW CASTLE     CLOUDY    24  18  77 W13       30.40R WCI  12
BEAVER COUNTY  NOT AVBL
BUTLER*        CLOUDY    25  16  68 W9G18     30.41R
PITTSBURGH INT CLOUDY    25  19  78 W9        30.40R
PITTSBURGH     CLOUDY    24  16  71 W10G17    30.39R WCI  14
INDIANA*       CLOUDY    25  18  74 W10G18    30.39S WCI  15
LATROBE        CLOUDY    25  18  74 SW9       30.42R
WASHINGTON CO* CLOUDY    25  18  74 SW9       30.43R
$$

PAZ004>006-010>012-017>019-024>028-033>037-041-042-045-046-049>053-100900-
CENTRAL PENNSYLVANIA

CITY           SKY/WX    TMP DP  RH WIND       PRES   REMARKS
BRADFORD       LGT SNOW  21  19  92 W7        30.24R VSB 1   WCI  12
DUBOIS         LGT SNOW  22  17  81 W13       30.30R WCI  10
CLEARFIELD     LGT SNOW  23  20  88 W8        30.32R FOG     WCI  14
JOHNSTOWN      CLOUDY    20  15  81 W15G23    30.29R WCI   6
ALTOONA        FLURRIES  25  17  72 W9        30.35R
STATE COLLEGE  FLURRIES  25  18  76 W12       30.34R WCI  14
WILLIAMSPORT   FLURRIES  29  22  75 W8        30.34R
SELINSGROVE    CLOUDY    29  20  69 VRB3      30.38R
FT INDIANTOWN  MOCLDY    27  17  63 SW10      30.37R
CAPITAL CITY   CLEAR     28  15  58 W13       30.39R
HARRISBURG     PTCLDY    30  19  63 W12       30.39R
YORK           CLEAR     26  17  68 W6        30.39S
$$

PAZ038>040-043-044-047-048-054-055-060>062-067>071-100900-
EASTERN PENNSYLVANIA

CITY           SKY/WX    TMP DP  RH WIND       PRES   REMARKS
SCRANTON       CLOUDY    27  14  58 W3        30.29R
MOUNT POCONO   MOCLDY    19  11  70 NW7       30.20S WCI  10
ALLENTOWN      CLOUDY    29  21  72 W8        30.34R
QUAKERTOWN*    CLOUDY    28  25  86 W7        30.35R
READING        PTCLDY    27  17  66 W9        30.36R
LANCASTER      CLEAR     24  18  77 W9        30.39R WCI  14
COATESVILLE    SUNNY     27  18  69 W13       30.37R
POTTSTOWN      CLOUDY    28  18  66 W5        30.38R
BLUE BELL      CLOUDY    28  21  74 CALM      30.36R
DOYLESTOWN     CLOUDY    30  23  75 W8        30.34R
WILLOW GROVE   NOT AVBL
NORTH PHILA    CLOUDY    31  22  69 W12       30.39R
PHILADELPHIA   MOCLDY    30  17  58 W9        30.40R
$$



USA.gov is the U.S. government's official web portal to all federal, state and local government web resources and services.